{"data":{"norad_id":55832,"epoch":"2026-09-19T21:17:52.357920Z","epoch_age_seconds":71040,"freshness":"FRESH","line1":"1 55832U 23029AN  26262.88741155  .00000073  00000+0  14980-3 0  9990","line2":"2 55832  87.9107 286.1022 0002017  90.0698 270.0666 13.19725713171397","mean_motion":13.19725713,"eccentricity":0.0002017,"inclination_deg":87.9107,"raan_deg":286.1022,"arg_perigee_deg":90.0698,"mean_anomaly_deg":270.0666,"bstar":0.0001498,"rev_number":17139,"period_min":109.11358214932,"perigee_km":1184.2421880569,"apogee_km":1187.2934672644,"semimajor_km":7563.9048276607,"source":"CELESTRAK","updated_at":"2026-09-20T09:00:44.785199Z"}}